| time (UTC) | temp F | wind direction | speed MPH | gust MPH | rain 1hr in | rain 24hr in | rain mn in | humidity % | barometer mb |
| 20260506203112 | 54 | 270 | 0.0 | 2.0 | 0.04 | 0.48 | 0.46 | 89 | 1006.9 |
| 20260506200112 | 55 | 0 | 0.0 | 0.0 | 0.07 | 0.46 | 0.44 | 89 | 1006.5 |
| 20260506193112 | 56 | 0 | 0.0 | 0.0 | 0.11 | 0.57 | 0.42 | 88 | 1006.2 |
| 20260506190111 | 56 | 0 | 0.0 | 0.0 | 0.14 | 0.53 | 0.37 | 88 | 1005.8 |
| 20260506183111 | 57 | 0 | 0.0 | 0.0 | 0.20 | 0.53 | 0.31 | 86 | 1005.5 |
| 20260506180111 | 58 | 0 | 0.0 | 0.0 | 0.16 | 0.45 | 0.23 | 85 | 1005.1 |
| 20260506170111 | 62 | 225 | 0.0 | 5.0 | 0.06 | 0.29 | 0.07 | 76 | 1004.5 |
| 20260506163111 | 64 | 157 | 2.0 | 10.0 | 0.00 | 0.23 | 0.01 | 68 | 1004.0 |
| 20260506160110 | 66 | 180 | 1.0 | 7.0 | 0.00 | 0.23 | 0.01 | 61 | 1003.8 |
| 20260506153111 | 67 | 202 | 0.0 | 5.0 | 0.00 | 0.23 | 0.01 | 57 | 1003.9 |
| 20260506150111 | 66 | 225 | 1.0 | 7.0 | 0.00 | 0.23 | 0.01 | 57 | 1003.8 |
| 20260506143110 | 66 | 202 | 3.0 | 8.0 | 0.00 | 0.23 | 0.01 | 58 | 1003.7 |
| 20260506133110 | 67 | 225 | 3.0 | 8.0 | 0.00 | 0.25 | 0.01 | 59 | 1003.8 |
| 20260506130111 | 68 | 225 | 3.0 | 9.0 | 0.00 | 0.25 | 0.01 | 56 | 1003.8 |
| 20260506123110 | 67 | 247 | 2.0 | 7.0 | 0.00 | 0.41 | 0.01 | 58 | 1003.8 |
| 20260506120110 | 67 | 225 | 3.0 | 10.0 | 0.00 | 0.41 | 0.01 | 59 | 1003.8 |
| 20260506110110 | 67 | 180 | 1.0 | 8.0 | 0.00 | 0.41 | 0.01 | 61 | 1004.2 |
| 20260506103109 | 64 | 225 | 2.0 | 9.0 | 0.00 | 0.41 | 0.01 | 65 | 1004.3 |
| 20260506100109 | 64 | 225 | 2.0 | 7.0 | 0.00 | 0.41 | 0.01 | 67 | 1004.5 |
| 20260506090109 | 64 | 180 | 1.0 | 7.0 | 0.00 | 0.41 | 0.01 | 75 | 1004.2 |
| 20260506083109 | 63 | 202 | 2.0 | 10.0 | 0.00 | 0.41 | 0.01 | 77 | 1004.2 |
| 20260506080109 | 60 | 202 | 0.0 | 5.0 | 0.00 | 0.41 | 0.01 | 85 | 1004.1 |
| 20260506050113 | 54 | 0 | 0.0 | 0.0 | 0.01 | 0.41 | 0.01 | 94 | 1004.4 |
| 20260506040113 | 54 | 0 | 0.0 | 0.0 | 0.00 | 0.40 | 0.00 | 94 | 1004.3 |
| 20260506033113 | 54 | 0 | 0.0 | 0.0 | 0.00 | 0.40 | 0.00 | 94 | 1004.5 |
| 20260506020113 | 55 | 0 | 0.0 | 0.0 | 0.00 | 0.40 | 0.00 | 93 | 1004.7 |
| 20260506010112 | 56 | 0 | 0.0 | 0.0 | 0.00 | 0.40 | 0.00 | 93 | 1004.9 |
| 20260506003112 | 56 | 0 | 0.0 | 0.0 | 0.00 | 0.40 | 0.00 | 93 | 1005.2 |
| 20260506000112 | 56 | 0 | 0.0 | 0.0 | 0.00 | 0.40 | 0.00 | 93 | 1005.2 |
| 20260505233113 | 57 | 0 | 0.0 | 0.0 | 0.00 | 0.40 | 0.00 | 92 | 1005.4 |
| 20260505230112 | 57 | 0 | 0.0 | 0.0 | 0.00 | 0.40 | 0.00 | 92 | 1005.4 |
| 20260505223112 | 58 | 0 | 0.0 | 0.0 | 0.00 | 0.40 | 0.00 | 92 | 1005.4 |
| 20260505213112 | 58 | 0 | 0.0 | 0.0 | 0.09 | 0.40 | 0.40 | 91 | 1005.5 |
| 20260505210111 | 59 | 0 | 0.0 | 0.0 | 0.14 | 0.39 | 0.39 | 91 | 1005.6 |